Overview Statistics Trail Chart Weather Telemetry Raw packets
 

This is the latest recevied weather packets stored in our database for station/object KB8TTR. If no packets are shown the sender has not sent any weather packets the latest 10 day(s).

<< 35 36 37 38 39 40 41 >>
Time Temp. Humidity Pressure Rain* Wind** Luminosity Snow
1788376093 33.89° C 57% 1016.1 hPa 0 mm - 332 W/m² -
1788375791 33.89° C 58% 1016.1 hPa 0 mm - 845 W/m² -
1788375488 33.89° C 59% 1016.1 hPa 0 mm - 572 W/m² -
1788375183 33.33° C 59% 1016.3 hPa 0 mm - 319 W/m² -
1788374879 33.89° C 59% 1016.2 hPa 0 mm - 396 W/m² -
1788374574 34.44° C 58% 1016.2 hPa 0 mm - 873 W/m² -
1788374269 34.44° C 58% 1016.4 hPa 0 mm - 783 W/m² -
1788373965 34.44° C 57% 1016.2 hPa 0 mm - 754 W/m² -
1788373662 34.44° C 59% 1016.2 hPa 0 mm - 760 W/m² -
1788373358 33.89° C 56% 1016.1 hPa 0 mm - 823 W/m² -
1788373054 34.44° C 54% 1016.3 hPa 0 mm - 247 W/m² -
1788372753 34.44° C 57% 1016.3 hPa 0 mm - 818 W/m² -
1788372448 33.89° C 61% 1016.5 hPa 0 mm - 834 W/m² -
1788372144 33.89° C 61% 1016.5 hPa 0 mm - 823 W/m² -
1788371839 33.89° C 59% 1016.7 hPa 0 mm - 276 W/m² -
1788371535 33.33° C 57% 1016.8 hPa 0 mm - 821 W/m² -
1788371230 33.33° C 59% 1016.8 hPa 0 mm - 690 W/m² -
1788370926 33.89° C 61% 1016.9 hPa 0 mm - 352 W/m² -
1788370622 33.33° C 62% 1016.9 hPa 0 mm - 391 W/m² -
1788370316 32.78° C 62% 1017 hPa 0 mm - 879 W/m² -
1788370016 32.78° C 62% 1016.9 hPa 0 mm - 378 W/m² -
1788369715 32.78° C 63% 1017.1 hPa 0 mm - 889 W/m² -
1788369411 32.78° C 64% 1017 hPa 0 mm - 848 W/m² -
1788369107 32.78° C 62% 1017.4 hPa 0 mm - 827 W/m² -
1788368803 32.78° C 65% 1017.3 hPa 0 mm - 832 W/m² -

* Rain latest hour (hover to see other rain measurements)
** Current wind speed in m/s (hover to see current wind gust speed)